Dallas Love, TX

7:11 PM CDT on June 25, 2017 (GMT -0500)
Dallas Love | | Change Station
Active Advisory: Flood Warning

Elev 486 ft 32.85 °N, 96.85 °W | Updated 18 minutes ago

Scattered Clouds
Scattered Clouds
86 °F
Feels Like 86 °F
N
8
Wind Variable Wind from East

Today
High -- | Low -- °F
--% Chance of Precip.
Yesterday
High -- | Low -- °F
Precip. -- in
Pressure 30.08 in
Visibility 10.0 miles
Clouds Few 5000 ft
Few 18000 ft
Scattered Clouds 30000 ft
Heat Index 86 °F
Dew Point 61 °F
Humidity 43%
Rainfall 0.00 in
Snow Depth Not available.
6:20 AM 8:39 PM
Waxing Crescent, 5% visible
METAR KDAL 252353Z 10007KT 10SM FEW050 FEW180 SCT300 30/16 A3010 RMK AO2 SLP186 T03000161 10311 20289 56017 $
Pressure 30.08 in
Visibility 10.0 miles
Clouds Few 5000 ft
Few 18000 ft
Scattered Clouds 30000 ft
Heat Index 86 °F
Dew Point 61 °F
Humidity 43%
Rainfall 0.00 in
Snow Depth Not available.
6:20 AM 8:39 PM
Waxing Crescent, 5% visible
METAR KDAL 252353Z 10007KT 10SM FEW050 FEW180 SCT300 30/16 A3010 RMK AO2 SLP186 T03000161 10311 20289 56017 $

Get Your Daily Forecast Email!

Thanks for signing up!

Be on the lookout for a verification email in your inbox.

You'll start receiving severe weather alerts in your inbox..

×

10-Day Weather Forecast

Almanac

Astronomy

Jun. 25, 2017 Rise Set
Actual Time
Civil Twilight
Nautical Twilight
Astronomical Twilight
Moon
Length of Visible Light
Length of Day
Tomorrow will be .
, % of the Moon is Illuminated

Today's Extremes

State Highs State Lows

Community

WunderPhotos

Category 6

Welcome to Category 6. This is the collective home for Weather Underground's featured writeups by Dr. Jeff Masters (right), Bob Henson (left), Chris Burt, and other regular contributors.

Nearby

Air Quality

  Air Quality AQ Index Pollutant
Not available.

Snow Depth

Station Depth Elevation

Earthquake Activity

City Distance Mag. Time & Date
Minimum magnitude displayed is 2.5.

Coastal Water Temperatures

Place Temperature

Stations

Nearby Weather Stations

Station Location Temp. Windchill Dew Point Humidity Wind Precip. Elev Updated Type
                   

Watches & Warnings

Flood Warning
Issued: 2:55 PM CDT Jun. 25, 2017 – National Weather Service

The Flood Warning continues for
the Trinity River at Dallas.
* At 200 PM Sunday the stage was 32.30 feet.
* Flood stage is 30 feet.
* Minor flooding is occurring and minor flooding is forecast.
* Forecast... the river has crested and will continue to recede and
fall below flood stage by Sunday evening.
* At 32 feet, minor flooding of agricultural lands used for cattle
grazing will occur. Low water crossings near the river will begin
to flood.


Lat... Lon 3275 9693 3281 9693 3283 9683 3275 9671
      3269 9676 3278 9687


Godwin